Regional Weather Roundup
Issued by NWS Mt. Holly, NJ

Home | Current Version | Previous Version | Text Only | Print | Product List | Glossary On
Versions: 1 2 3 4 5 6 7 8 9 10 11 12 13 14 15 16 17 18 19 20 21 22 23 24 25 26 27 28 29 30 31 32 33 34 35 36 37 38 39 40 41 42 43 44 45 46 47 48 49 50
000
ASUS41 KPHI 270810
RWRPHI

REGIONAL WEATHER ROUNDUP
NATIONAL WEATHER SERVICE MOUNT HOLLY NJ
300 AM EST THU NOV 27 2014

NOTE:  "FAIR" INDICATES FEW OR NO CLOUDS BELOW 12,000 FEET WITH NO
SIGNIFICANT WEATHER AND/OR OBSTRUCTIONS TO VISIBILITY.

 * = STATION DOES NOT REPORT PRECIPITATION (E.G. RAIN, SNOW, ETC.)
        OR FOG.

NJZ015>026-270900-
SOUTHERN NEW JERSEY

CITY           SKY/WX    TMP DP  RH WIND       PRES   REMARKS
POMONA         PTCLDY    35  33  92 W9        29.95R WCI  28
RIO GRANDE*    CLOUDY    37  30  75 W10G16    29.97R WCI  30
MILLVILLE      MOCLDY    35  33  92 W7        29.98R WCI  29
WRIGHTSTOWN    CLOUDY    35  32  92 W6        29.92R WCI  29
MOUNT HOLLY    CLOUDY    35  31  85 W5        29.95R WCI  31
TRENTON        CLOUDY    35  30  82 NW7       29.92S WCI  29

$$
NJZ001>014-270900-
NORTHERN NEW JERSEY

CITY           SKY/WX    TMP DP  RH WIND       PRES   REMARKS
SUSSEX         CLOUDY    33  30  88 CALM      29.90R
ANDOVER*         N/A     32  31  96 CALM      29.91R
MORRISTOWN       N/A     37  32  81 CALM      29.92R
NEWARK         CLOUDY    36  32  85 CALM      29.92S
TETERBORO      CLOUDY    36  30  79 NW5       29.90R WCI  32
CALDWELL       CLOUDY    34  30  85 CALM      29.91S
SOMERVILLE     CLOUDY    36  31  82 CALM      29.91R
ALLAIRE*       MOCLDY    34  28  80 W9        29.91R WCI  26
TOMS RIVER*    CLEAR     34  32  93 CALM      29.93R

$$
PAZ043-044-047-054-055-060>062-066>071-270900-
EASTERN PENNSYLVANIA

CITY           SKY/WX    TMP DP  RH WIND       PRES   REMARKS
PHILADELPHIA   CLOUDY    37  31  78 W8        29.97R WCI  31
NORTH PHILA    CLOUDY    37  30  75 NW8       29.95S WCI  31
BLUE BELL      CLOUDY    36  32  87 W3        29.93S
DOYLESTOWN     CLOUDY    33  30  88 W8        29.92S WCI  26
QUAKERTOWN*    CLOUDY    32  30  93 CALM      29.94R
POTTSTOWN      CLOUDY    33  30  88 W6        29.96R WCI  28
LANCASTER      CLOUDY    33  29  85 W9        29.98R WCI  25
COATESVILLE    MIX PCPN  32  32 100 W12       29.96R WCI  23
READING        CLOUDY    35  29  78 NW8       29.95S WCI  29
ALLENTOWN      CLOUDY    35  28  75 W5        29.94R WCI  31
MOUNT POCONO   MIX PCPN  28  24  85 NW12G23   29.85R WCI  18
HAZLETON       FLURRIES  30  28  93 W7        29.92S WCI  23
WILKES BARRE   FLURRIES  31  26  82 W13       29.93S WCI  21

$$
DEZALL-MDZ008-012-015-019-020-270900-
DELAWARE AND EASTERN MARYLAND

CITY           SKY/WX    TMP DP  RH WIND       PRES   REMARKS
WILMINGTON     CLOUDY    36  32  85 W9        29.99R WCI  29
DOVER          CLOUDY    36  35  94 W9        29.98R WCI  29
GEORGETOWN     CLOUDY    38  34  85 W5        30.00R WCI  34
EASTON         CLEAR     37  37 100 NW5       30.04F WCI  33
PATUXENT       PTCLDY    37  33  85 W7        30.02R WCI  32
OCEAN CITY     PTCLDY    37  34  89 NW8       30.00R WCI  31
WALLOPS ISLAND CLOUDY    39  35  86 NW7       30.02S WCI  34
CAMBRIDGE      CLEAR     37  34  87 W5        30.01S WCI  34
SALISBURY      MOCLDY    39  34  82 NW6       30.01S WCI  35

$$
PAZ001-021-NYZ056-072-MDZ011-DCZ001-270900-
OTHER NEARBY LOCATIONS

CITY           SKY/WX    TMP DP  RH WIND       PRES   REMARKS
HARRISBURG     CLOUDY    34  30  85 W10       29.99R WCI  26
STATE COLLEGE  CLOUDY    30  28  93 CALM      29.98S
WILLIAMSPORT   CLOUDY    32  27  81 W8        29.99R WCI  25
BINGHAMTON     CLOUDY    36  24  62 NW7       29.90R HAZE    WCI  30
NEW YORK CITY  CLOUDY    36  29  75 NW5       29.92R WCI  32
BALTIMORE      MOCLDY    34  31  88 NW6       30.00S WCI  29
WASHINGTON DC  MOCLDY    39  32  76 NW5       30.03F

$$


USA.gov is the U.S. government's official web portal to all federal, state and local government web resources and services.